www.pogodaiklimat.ru

Погода и климат >> Архив погоды >> Россия >> Краснодарский край >> Приморско-Ахтарск


АРХИВ ПОГОДЫ в Приморско-Ахтарске

Время (UTC), дата Ветер
(напр.,м/с)
 
Видим.   Явления Облачность Т
(С)
Тd
(С)
f
(%)
Тe
(С)
Тes
(С)
Комфортность P
(гПа)
Po
(гПа)
Тmin
(С)
Tmax
(С)
R
(мм)
R24
(мм)
S
(см)
21 13.06 штиль 0 10 км ясно +21.7 +14.1 62 +25 +25 комфорт 1006.5 1006.0
00 14.06 штиль 0 10 км ясно +20.1 +13.1 64 +22 +22 комфорт 1006.5 1006.0
03 14.06 СВ 1 10 км 3/0
[Ci fib]
+21.9 +13.6 59 +25 +26 комфорт 1006.8 1006.3 +19.2
06 14.06 В 1 10 км 10/0
[Ci fib]
+28.8 +8.4 28 +28 +38 жарко 1007.3 1006.8
09 14.06 В 2 10 км 4/0
[Ci fib]
+32.5 +4.0 17 +30 +47 жарко 1007.0 1006.5
12 14.06 СЗ 2 10 км ясно +30.1 +14.4 38 +32 +46 жарко 1006.5 1006.0
15 14.06 С 1 10 км 3/0
[Ci fib]
+29.7 +15.2 41 +32 +35 душно 1005.6 1005.1 +33.6
18 14.06 штиль 0 10 км ясно +25.6 +13.8 48 +28 +28 жарко 1005.3 1004.8
21 14.06 штиль 0 10 км ясно +24.6 +12.6 47 +26 +26 жарко 1005.7 1005.2
00 15.06 В 1 10 км ясно +23.4 +9.4 41 +25 +25 комфорт 1005.4 1004.9
03 15.06 В 2 10 км ясно +22.8 +11.0 47 +25 +26 комфорт 1005.5 1005.0 +22.0
06 15.06 В 3 10 км ясно +30.3 +8.2 25 +29 +38 жарко 1005.6 1005.1
09 15.06 ЮВ 1 10 км 10/0
[Ci fib]
+34.6 +6.5 18 +33 +50 жарко 1005.6 1005.2
12 15.06 штиль 0 10 км 10/3 600 м
[Cu med, cong Ci sp]
+34.5 +8.5 20 +33 +43 жарко 1005.4 1005.0
15 15.06 В 1 10 км 3/0
[Ci fib]
+34.3 +7.3 19 +32 +36 жарко 1005.0 1004.6 +35.9
18 15.06 СВ 2 10 км 3/0
[Ac trans]
+28.8 +10.1 31 +29 +29 жарко 1006.0 1005.5
21 15.06 В 2 10 км ясно +25.7 +10.3 38 +27 +27 жарко 1006.2 1005.7
00 16.06 В 1 10 км ясно +24.0 +12.3 48 +26 +26 жарко 1005.9 1005.4
03 16.06 штиль 0 10 км 8/0
[Ac trans Ci fib]
+22.8 +13.9 57 +26 +27 жарко 1006.7 1006.3 +22.2
06 16.06 СЗ 2 10 км 10/0
[Ac trans Ci fib]
+26.3 +20.1 69 +32 +39 очень
душно
1007.3 1006.8
09 16.06 ЮЗ 1 10 км 10/0
[Ac trans Ci fib]
+28.6 +18.4 54 +33 +48 очень
душно
1008.6 1008.1
12 16.06 штиль 0 10 км 10/4 600 м
[Cu med, cong Ac trans Ci fib]
+28.5 +18.3 54 +33 +39 очень
душно
1008.8 1008.3
15 16.06 штиль 0 10 км 10/6 600 м
[Cu med, cong Ac trans Ci fib]
+26.1 +19.5 67 +32 +32 очень
душно
1008.9 1008.4 +29.7
18 16.06 штиль 0 10 км 10/0
[Ac trans Ci fib]
+23.3 +19.0 77 +30 +30 очень
душно
1009.4 1009.0
21 16.06 С 2 10 км ясно +24.0 +20.1 79 +30 +30 очень
душно
1008.7 1008.3
00 17.06 В 3 10 км 10/10 600 м
[Cu med, cong]
+24.6 +9.7 39 +25 +25 комфорт 1008.4 1007.9
03 17.06 В 4 10 км 10/10 600 м
[Cb calv]
+23.7 +7.2 35 +24 +24 комфорт 1008.5 1008.0 +22.9
06 17.06 В 4
{10}
10 км 10/6 600 м
[Sc diur, vesp Ac cuf]
+24.1 +6.7 33 +24 +25 комфорт 1008.6 1008.2
09 17.06 В 2
{10}
10 км 10/4 600 м
[Cb calv Ac lent Ci sp]
+26.4 +8.2 32 +26 +32 жарко 1009.8 1009.4
12 17.06 ЮВ 2 10 км 10/5 600 м
[Sc diur, vesp Ac As]
+28.5 +10.8 33 +29 +31 жарко 1009.2 1008.7
15 17.06 В 1 10 км 10/5 600 м
[Cb calv Ac und]
+27.1 +9.7 34 +28 +28 жарко 1009.2 1008.7 +28.8
18 17.06 штиль 0 10 км 10/0
[Ac und]
+24.6 +12.2 46 +26 +26 жарко 1009.3 1008.8
21 17.06 В 3 10 км 10/0
[Ac und]
+23.6 +4.5 29 +23 +23 комфорт 1009.0 1008.6
00 18.06 СВ 2 10 км 10/0
[Ac trans]
+22.0 +3.8 30 +22 +22 комфорт 1008.5 1008.0
03 18.06 В 2 10 км 10/3 1000 м
[Sc Ac und]
+20.9 +3.4 32 +22 +22 комфорт 1008.5 1008.0 +20.9
06 18.06 В 2 10 км 10/0
[Ac trans Ci fib]
+22.8 +4.3 30 +23 +29 комфорт 1008.6 1008.1 +20.8
09 18.06 В 3 10 км 10/4 600 м
[Cu med, cong Ac trans Ci fib]
+25.5 +6.9 30 +25 +30 комфорт 1009.0 1008.5
12 18.06 В 4 10 км 10/3 600 м
[Cu med, cong Ac trans Ci fib]
+29.9 +4.0 19 +28 +31 жарко 1008.4 1008.0
15 18.06 В 2
{10}
10 км 10/3 600 м
[Cu med, cong Ac trans Ci fib]
+29.0 +6.6 24 +28 +29 жарко 1008.3 1007.9 +30.8
18 18.06 штиль 0 10 км ясно +25.1 +7.9 33 +25 +25 комфорт 1008.9 1008.4
21 18.06 штиль 0 10 км ясно +20.1 +9.5 50 +21 +21 комфорт 1010.1 1009.6
00 19.06 В 1 10 км ясно +19.5 +11.4 59 +22 +22 комфорт 1010.4 1009.9
03 19.06 В 1 10 км ясно +19.8 +11.6 59 +22 +24 комфорт 1011.4 1010.9 +18.5
06 19.06 В 2 10 км ясно +26.8 +11.4 38 +28 +38 жарко 1012.3 1011.8
09 19.06 В 2 10 км 1/1 600 м
[Cu hum]
+31.0 +13.6 35 +29 +46 жарко 1012.3 1011.8
12 19.06 СЗ 3 10 км ясно +28.4 +15.9 47 +32 +43 душно 1012.1 1011.6
15 19.06 СЗ 2 10 км ясно +28.4 +16.0 47 +32 +34 душно 1011.8 1011.3 +32.8
18 19.06 С 2 10 км 4/0
[Ci fib]
+26.9 +16.1 52 +26 +26 жарко 1012.2 1011.7
21 19.06 С 2 10 км ясно +23.7 +15.0 58 +27 +27 жарко 1012.9 1012.4
00 20.06 штиль 0 10 км ясно +21.1 +11.8 55 +23 +23 комфорт 1013.4 1012.9
03 20.06 штиль 0 10 км ясно +22.1 +11.2 50 +24 +25 комфорт 1014.0 1013.5 +20.7
06 20.06 С 1 10 км ясно +26.3 +15.6 52 +29 +41 жарко 1014.6 1014.1
09 20.06 СЗ 2 10 км 1/1 600 м
[Cu hum]
+29.2 +12.8 36 +30 +47 жарко 1014.6 1014.2
12 20.06 СЗ 2 10 км 1/0
[Ci fib]
+29.9 +16.0 43 +33 +46 душно 1014.3 1013.9
15 20.06 СЗ 2 10 км 3/0
[Ci fib]
+29.8 +14.0 38 +32 +34 душно 1013.6 1013.1 +30.6

 

Местоположение метеостанции Приморско-Ахтарск (Краснодарский край, Россия): широта 46.03 долгота 38.15 высота над уровнем моря 4 м.

В архиве по умолчанию представлена погода в Приморско-Ахтарске за последнюю неделю. Архивные данные за месяц целиком и за предыдущие месяцы, начиная с января 2011 года, Вы можете получить, выбрав интересующий диапазон дат из раскрывающегося списка и нажав кнопку "Ввод!".


*Определитесь, кто Вы:
робот инопланетянин человек

Внимание! Время в таблицах - всемирное. Для получения местного времени необходимо прибавить поправку, которая в Приморско-Ахтарске равна 3 ч.

Смотрите также архив погоды в соседних городах и на ближайших метеорологических станциях:

Погода в Каневской (Краснодарский край, Россия) (63 км)
Погода в Тимашевске (Краснодарский край, Россия) (75 км)
Погода в Должанке (Краснодарский край, Россия) (79 км)
Погода в Славянске-на-Кубани (Краснодарский край, Россия) (83 км)
Погода в Ейске (Краснодарский край, Россия) (86 км)
Погода в Староминская (Краснодарский край, Россия) (87 км)
Погода в Темрюке (Краснодарский край, Россия) (99 км)
Погода в Маргаритово (Ростовская область, Россия) (114 км)
Погода в Кореновске (Краснодарский край, Россия) (121 км)
Погода в Мариуполе (Донецкая область, Украина) (122 км)

Пояснения к столбцам:

Ветер - указаны скорость ветра в м/с - средняя за 10 мин, порывы в срок и между сроками (в фигурных скобках) и направление, откуда дует ветер: С - северный, СВ - северо-восточный, В - восточный, ЮВ - юго-восточный, Ю - южный, ЮЗ - юго-западный, З - западный, СЗ - северо-западный.
Видимость - горизонтальная дальность видимости в метрах или километрах. При видимости от 1 до 10 км при отсутствии осадков обычно наблюдается дымка, при ухудшении видимости до 1 км и менее - туман. В сухую погоду видимость может ухудшаться дымом, пылью или мглою.
Явления - указаны атмосферные явления, наблюдавшиеся в срок или в последний час перед сроком; фигурными скобками обозначены явления, наблюдавшиеся между сроками (за 1-3 часа до срока); квадратными скобками обозначены град или гололедные отложения с указанием их диаметра в мм.
Облачность - указаны через наклонную черту общая и нижняя облачность в баллах и высота нижней границы облаков в метрах; квадратными скобками обозначены формы облаков: Ci - перистые, Cs - перисто-слоистые, Cc - перисто-кучевые, Ac - высококучевые, As - высокослоистые, Sc - слоисто-кучевые, Ns - слоисто-дождевые, Cu - кучевые, Cb - кучево-дождевые. Подробнее классификацию облаков см. в Атласе облаков (PDF).
T - Температура воздуха - температура, измеренная на высоте 2 м над землей.
Td - Температура точки росы - температура, при понижении до которой содержащийся в воздухе водяной пар достигнет насыщения.
f - Относительная влажность воздуха - влажноcть воздуха, измеренная на высоте 2 м над землей.
Te - Эффективная температура - температура, которую ощущает одетый по сезону человек в тени. Характеристика душности погоды. При расчете учитывается влияние влажности воздуха и скорости ветра на теплоощущения человека.
Tes - Эффективная температура на солнце - температура, которую ощущает человек, с поправкой на солнечный нагрев. Характеристика знойности погоды. Зависит от высоты солнца над горизонтом, облачности и скорости ветра. Ночью, в пасмурную погоду, а также при ветре 12 м/с и более поправка равна нулю.
P - Атмосферное давление - приведенное к уровню моря атмосферное давление.
Po - Атмосферное давление - измеренное на уровне метеостанции атмосферное давление.
Tmin - Минимальная температура - минимум температуры воздуха на высоте 2 м над землей.
Tmax - Максимальная температура - максимум температуры воздуха на высоте 2 м над землей.
R - Количество осадков - Количество выпавших осадков за период времени, мм. При наведении курсора мыши на число - период времени, за который выпало указанное количество осадков.
R24 - Количество осадков - Количество выпавших осадков за 24 часа, мм.
S - Снежный покров - Высота снежного покрова, см. При наведении курсора мыши на число - состояние снежного покрова и степень покрытия местности в баллах.